DW2613 Weather Reports


time (UTC)temp
F
wind
direction
speed
knots
gust
knots
rain 1hr
in
rain 24hr
in
rain mn
in
humidity
%
barometer
mb
20260504150932 63 286 2.6 7.8 0.00 0.00 0.00 57 1014.9
20260504140906 61 273 3.5 8.7 0.00 0.00 0.00 62 1015.1
20260504130636 61 257 2.6 7.8 0.00 0.00 0.00 63 1015.5
20260504110414 57 272 2.6 8.7 0.00 0.00 0.00 69 1016.1
20260504081520 56 165 1.7 9.6 0.00 0.00 0.00 78 1016.2
20260504081333 56 188 1.7 7.8 0.00 0.00 0.00 78 1016.4
20260504080317 56 184 1.7 6.1 0.00 0.00 0.00 77 1016.5
20260504050018 54 126 0.9 6.1 0.00 0.00 0.00 67 1016.5
20260504045928 55 163 0.9 5.2 0.00 0.00 0.00 67 1016.7
20260504044908 55 90 0.0 3.5 0.00 0.00 0.00 67 1016.7
20260504044520 54 90 0.9 4.3 0.00 0.00 0.00 66 1016.5
20260504043859 55 185 0.0 3.5 0.00 0.00 0.00 67 1016.6
20260504043032 54 212 0.9 4.3 0.00 0.00 0.00 66 1016.3
20260504041754 55 271 0.9 4.3 0.00 0.00 0.00 68 1016.6
20260504041524 54 136 1.7 5.2 0.00 0.00 0.00 68 1016.4
20260504040731 55 220 0.9 7.0 0.00 0.00 0.00 67 1016.5
20260504040014 54 247 1.7 8.7 0.00 0.00 0.00 65 1016.3
20260504035742 55 105 0.9 7.0 0.00 0.00 0.00 65 1016.4
20260504034803 54 234 0.9 6.1 0.00 0.00 0.00 68 1016.3
20260504034515 53 290 0.9 7.0 0.00 0.00 0.00 68 1016.2
20260504033747 52 215 0.0 4.3 0.00 0.00 0.00 72 1016.3
20260504033021 50 263 0.0 2.6 0.00 0.00 0.00 72 1016.1
20260504032715 51 245 0.0 0.9 0.00 0.00 0.00 73 1016.1
20260504031700 50 245 0.0 0.0 0.00 0.00 0.00 73 1016.1
20260504031525 50 245 0.0 2.6 0.00 0.00 0.00 73 1016.0
20260504030655 49 286 0.0 0.9 0.00 0.00 0.00 77 1016.1
20260504030030 48 289 0.0 2.6 0.00 0.00 0.00 77 1016.0
20260504025627 48 297 0.0 0.9 0.00 0.00 0.00 77 1016.1
20260504024642 48 297 0.0 0.0 0.00 0.00 0.00 78 1016.0
20260504024516 47 297 0.0 1.7 0.00 0.00 0.00 78 1016.0
20260504023621 48 297 0.0 0.9 0.00 0.00 0.00 74 1015.9
20260504023021 47 297 0.0 0.9 0.00 0.00 0.00 74 1015.9
20260504022551 48 297 0.0 0.0 0.00 0.00 0.00 75 1016.0
20260504021524 47 297 0.0 1.7 0.00 0.00 0.00 77 1016.0
20260504020351 47 297 0.0 0.0 0.00 0.00 0.00 75 1015.9
20260504020027 47 297 0.0 0.0 0.00 0.00 0.00 73 1015.9
20260504015324 47 297 0.0 0.0 0.00 0.00 0.00 73 1015.9
20260504014536 47 297 0.0 0.9 0.00 0.00 0.00 75 1015.9
20260504014251 47 297 0.0 0.0 0.00 0.00 0.00 76 1015.9
20260504013240 48 297 0.0 0.0 0.00 0.00 0.00 76 1015.8
20260504013020 47 297 0.0 0.9 0.00 0.00 0.00 76 1015.8
20260504012304 48 297 0.0 0.0 0.00 0.00 0.00 75 1015.7
20260504011523 48 297 0.0 0.9 0.00 0.00 0.00 74 1015.7
20260504011301 49 297 0.0 0.0 0.00 0.00 0.00 74 1015.6
20260504010320 49 297 0.0 0.0 0.00 0.00 0.00 70 1015.6
20260504010026 49 297 0.0 0.0 0.00 0.00 0.00 65 1015.7
20260504005251 50 297 0.0 0.0 0.00 0.00 0.00 61 1015.4
20260504004528 51 297 0.0 0.0 0.00 0.00 0.00 57 1015.5
20260504004246 52 297 0.0 0.0 0.00 0.00 0.00 57 1015.4
20260504003215 53 297 0.0 0.0 0.00 0.00 0.00 55 1015.3
20260504003010 53 297 0.0 1.7 0.00 0.00 0.00 54 1015.4
20260504002216 54 297 0.0 0.9 0.00 0.00 0.00 52 1015.2
20260504001520 55 297 0.0 2.6 0.00 0.00 0.00 50 1015.2
20260504000028 57 297 0.0 0.9 0.00 0.00 0.00 45 1014.8
20260504000003 57 297 0.0 3.5 0.00 0.00 0.00 45 1015.0
20260503235035 58 288 0.9 2.6 0.00 0.00 0.00 45 1014.8
20260503234508 58 288 0.9 5.2 0.00 0.00 0.00 43 1014.9
20260503234055 58 282 0.9 3.5 0.00 0.00 0.00 43 1014.7
20260503233024 59 285 1.7 5.2 0.00 0.00 0.00 41 1014.7
20260503233010 59 284 2.6 7.0 0.00 0.00 0.00 41 1015.0
20260503231516 59 285 4.3 7.8 0.00 0.00 0.00 37 1015.0
20260503230018 60 255 5.2 9.6 0.00 0.00 0.00 36 1015.0
20260503225735 61 288 2.6 7.0 0.00 0.00 0.00 38 1014.7
20260503224717 61 280 3.5 7.0 0.00 0.00 0.00 37 1014.7
20260503224520 61 281 4.3 8.7 0.00 0.00 0.00 36 1015.0
20260503223707 61 288 3.5 8.7 0.00 0.00 0.00 35 1014.6
20260503223009 61 304 4.3 10.4 0.00 0.00 0.00 33 1014.9
20260503222721 61 338 3.5 8.7 0.00 0.00 0.00 34 1014.7
20260503221719 61 350 4.3 8.7 0.00 0.00 0.00 35 1014.6
20260503221513 61 285 6.1 11.3 0.00 0.00 0.00 34 1014.9
20260503220743 61 309 4.3 9.6 0.00 0.00 0.00 34 1014.7
20260503220024 61 279 4.3 11.3 0.00 0.00 0.00 33 1015.0
20260503215721 61 283 3.5 9.6 0.00 0.00 0.00 34 1014.7
20260503214715 61 309 7.0 12.2 0.00 0.00 0.00 33 1014.7
20260503214525 60 336 8.7 13.9 0.00 0.00 0.00 33 1015.1
20260503213722 61 303 6.1 12.2 0.00 0.00 0.00 34 1014.7
20260503213024 61 297 6.1 13.9 0.00 0.00 0.00 34 1014.9
20260503212717 61 355 5.2 12.2 0.00 0.00 0.00 35 1014.6
20260503211511 60 311 5.2 13.9 0.00 0.00 0.00 34 1014.8
20260503210530 61 277 3.5 12.2 0.00 0.00 0.00 34 1014.4
20260503210013 60 284 6.1 13.9 0.00 0.00 0.00 34 1014.9
20260503205555 61 338 5.2 12.2 0.00 0.00 0.00 35 1014.5
20260503204557 60 25 5.2 14.8 0.00 0.00 0.00 35 1014.5
20260503204521 60 321 4.3 15.6 0.00 0.00 0.00 34 1014.8
20260503203608 61 298 5.2 14.8 0.00 0.00 0.00 34 1014.6
20260503203023 60 341 7.8 16.5 0.00 0.00 0.00 33 1015.0
20260503202554 60 305 5.2 14.8 0.00 0.00 0.00 36 1014.6
20260503201614 60 336 6.1 14.8 0.00 0.00 0.00 36 1014.8
20260503201524 59 295 5.2 16.5 0.00 0.00 0.00 35 1015.1
20260503200607 60 266 4.3 12.2 0.00 0.00 0.00 35 1015.1
20260503200013 59 348 7.0 13.0 0.00 0.00 0.00 35 1015.3
20260503195617 59 340 6.1 12.2 0.00 0.00 0.00 36 1015.2
20260503194543 60 339 6.1 12.2 0.00 0.00 0.00 35 1015.4
20260503194521 59 18 5.2 13.9 0.00 0.00 0.00 35 1015.5
20260503193517 60 336 6.1 14.8 0.00 0.00 0.00 34 1015.4
20260503193020 59 310 7.0 16.5 0.00 0.00 0.00 33 1015.6
20260503191531 59 16 6.1 16.5 0.00 0.00 0.00 35 1015.7
20260503191301 59 275 7.0 14.8 0.00 0.00 0.00 33 1015.5
20260503190025 59 304 4.3 13.9 0.00 0.00 0.00 37 1015.7
20260503185154 59 289 6.1 13.9 0.00 0.00 0.00 35 1015.6
20260503184515 58 343 7.8 15.6 0.00 0.00 0.00 38 1015.8
20260503184128 58 321 6.1 13.9 0.00 0.00 0.00 36 1015.7
20260503183016 57 290 7.0 15.6 0.00 0.00 0.00 37 1015.9
20260503181917 58 0 6.1 18.2 0.00 0.00 0.00 38 1015.9
20260503181522 57 319 7.8 15.6 0.00 0.00 0.00 39 1016.1
20260503180941 57 338 7.0 18.2 0.00 0.00 0.00 37 1016.2
20260503180037 57 38 6.1 14.8 0.00 0.00 0.00 37 1016.2
20260503175944 57 302 6.1 14.8 0.00 0.00 0.00 37 1016.1
20260503175002 57 347 6.1 15.6 0.00 0.00 0.00 38 1016.2
20260503174525 57 244 8.7 16.5 0.00 0.00 0.00 36 1016.4
20260503173950 57 309 6.1 15.6 0.00 0.00 0.00 41 1016.3
20260503173014 56 272 6.1 17.4 0.00 0.00 0.00 38 1016.5
20260503172949 56 292 7.0 15.6 0.00 0.00 0.00 38 1016.4
20260503172010 55 278 7.8 15.6 0.00 0.00 0.00 36 1016.5
20260503171524 55 331 10.4 17.4 0.00 0.00 0.00 36 1016.5
20260503170938 56 340 5.2 14.8 0.00 0.00 0.00 41 1016.5